User: anonymous   Login
Location: Unspecified
(0.0000°N, 0.0000°E)
Time: 10:07:50
(UTC+00:00)
Language:

APRIZESAT 3 - Orbit

View from above orbital plane
View from above orbital plane
View from above satellite
View from above satellite

Ground track
Ground track

The orbit data is extracted from the following two-line orbital elements,

1 35686U 09041F   17116.94934886 +.00000205 +00000-0 +28680-4 0  9994
2 35686 098.2757 114.3417 0073285 179.0575 181.0791 14.87054404419523
Epoch (UTC): 26 April 2017 22:47:03
Eccentricity: 0.0073285
inclination: 98.2757°
perigee height: 556 km
apogee height: 658 km
right ascension of ascending node: 114.3417°
argument of perigee: 179.0575°
revolutions per day: 14.87054404
mean anomaly at epoch: 181.0791°
orbit number at epoch: 41952

The dashed part of the orbit path shows where the satellite is in the earth's shadow,  

DLR